Weather in Houma

United States     29°35′53″N   90°42′58″W
temp.,
°C
wind,
m/s
gust,
m/s
humid.,
%
clouds,
%
prec.,
mm/h
press.,
hPa
HPBL,
m
18 september, sat
sat1801:00+24sse279498 3.8 1015166
04:00+24se119420 1.1 101514
07:00+24ene119270 1.8 101611
10:00+28ne217884 0.6 1016415
13:00+31e116129 0.8 10151190
16:00+31se446530 0.8 1013918
19:00+26se36885 4.9 1014161
22:00+25ese389337 0.1 1015202
19 september, sun
sun1901:00+24sse269428 0.1 1014149
04:00+24se119422 0.0 101413
07:00+24e11943 0.1 101413
10:00+28ese22765 0.8 1015595
13:00+31sse346249 2.1 10131488
16:00+29sse45722 4.0 10121082
19:00+25s38860 4.7 1012230
22:00+24s26920 0.0 1013161
20 september, mon
mon2001:00+24s23950 0.1 101369
04:00+24s22950 0.3 101331
07:00+24s22940 0.4 101424
10:00+29ssw247519 0.3 1015935
13:00+31ssw356123 1.5 10141456
16:00+31sw55610 1.0 10131457
19:00+26ssw35810 1.1 1014106
22:00+25ssw23890 0.0 101552
21 september, tue
tue2101:00+24ssw24950 0.0 101577
04:00+24ssw23960 0.0 101557
07:00+24ssw22960 0.0 101621
10:00+29wsw23739 0.6 10181008
13:00+31wnw346036 1.8 10181480
16:00+30nw346842 3.3 1016695
19:00+26wsw12815 4.9 101614
22:00+24sw228779 0.0 101731
22 september, wed
wed2201:00+24w228961 0.1 101627
04:00+23wnw349242 0.0 101677
07:00+22n38963 0.0 1017280
10:00+26n57805 0.0 1018549
13:00+29n566669 0.0 10171070
16:00+28n566678 0.0 10161317
19:00+23n4107210 0.0 1017371
22:00+20n4127783 0.0 1018357